Afton, Prince Edward Island

12:23 PM ADT on April 19, 2018 (GMT -0300)
Afton

Weather History for 71706 - November, 2012

Change the Weather History Date:

Monday, November 26, 2012

  Actual Average Record
Temperature  
Mean Temperature 28 °F -  
Max Temperature 31 °F 33 °F - ()
Min Temperature 26 °F 19 °F - ()
Degree Days  
Heating Degree Days 36    
Moisture  
Dew Point 16 °F    
Average Humidity 58    
Maximum Humidity 64    
Minimum Humidity 43    
Precipitation  
Precipitation 0.00 in 0.17 in - ()
Sea Level Pressure  
Sea Level Pressure 29.69 in    
Wind  
Wind Speed 15 mph ()    
Max Wind Speed 22 mph    
Max Gust Speed 34 mph    
Visibility 15.0 miles    
Events      
T = Trace of Precipitation, MM = Missing Value Source: Averaged Metar Reports

Daily Weather History Graph

Daily Weather History Graph

Search for Another Location

Airport or City:

Astronomy

Nov. 26, 2012 Rise Set
Actual Time 7:29 AM AST 4:30 PM AST
Civil Twilight 6:55 AM AST 5:04 PM AST
Nautical Twilight 6:18 AM AST 5:41 PM AST
Astronomical Twilight 5:42 AM AST 6:17 PM AST
Moon 3:23 PM AST (11/26) 5:31 AM AST (11/26)
Length of Visible Light 10h 08m
Length of Day
9h 01m
Waxing Gibbous, 97% of the Moon is Illuminated
Nov 26
Waxing Gibbous
Nov 28
Full
Dec 6
Last Quarter
Dec 13
New
Dec 20
First Quarter

Hourly Weather History & Observations

Time (AST) Temp. Windchill Dew Point Humidity Pressure Visibility Wind Dir Wind Speed Gust Speed Precip Events Conditions
12:00 AM 28.4 °F 15.4 °F 15.8 °F 59% 29.47 in 15.0 mi WSW 19.6 mph 34.5 mph N/A   Mostly Cloudy
1:00 AM 28.4 °F 15.4 °F 15.8 °F 59% 29.48 in 15.0 mi WSW 19.6 mph 29.9 mph N/A   Mostly Cloudy
2:00 AM 28 °F - 15 °F 46% 29.50 in 15 mi WSW 18.4 mph - -   Mostly Cloudy
2:00 AM 26.6 °F 14.3 °F 15.8 °F 64% 29.49 in 15.0 mi WSW 16.1 mph 29.9 mph N/A   Mostly Cloudy
3:00 AM 26.6 °F 14.3 °F 15.8 °F 64% 29.52 in 15.0 mi WSW 16.1 mph 28.8 mph N/A   Mostly Cloudy
4:00 AM 26.6 °F 13.4 °F 14.0 °F 59% 29.53 in 15.0 mi WSW 18.4 mph 31.1 mph N/A   Partly Cloudy
5:00 AM 26.6 °F 13.8 °F 15.8 °F 64% 29.55 in 15.0 mi WSW 17.3 mph 27.6 mph N/A   Partly Cloudy
6:00 AM 26.6 °F 14.3 °F 15.8 °F 64% 29.57 in 15.0 mi WSW 16.1 mph 28.8 mph N/A   Mostly Cloudy
7:00 AM 26.6 °F 14.3 °F 15.8 °F 64% 29.59 in 15.0 mi WSW 16.1 mph 27.6 mph N/A   Mostly Cloudy
8:00 AM 27 °F - 16 °F 51% 29.62 in 15 mi WSW 15.0 mph - -   Mostly Cloudy
8:00 AM 26.6 °F 14.7 °F 15.8 °F 64% 29.62 in 15.0 mi WSW 15.0 mph 25.3 mph N/A   Mostly Cloudy
9:00 AM 26.6 °F 13.8 °F 15.8 °F 64% 29.65 in 15.0 mi WSW 17.3 mph 26.5 mph N/A   Mostly Cloudy
10:00 AM 26.6 °F 13.4 °F 15.8 °F 64% 29.66 in 15.0 mi WSW 18.4 mph 24.2 mph N/A   Mostly Cloudy
11:00 AM 28.4 °F 15.1 °F 15.8 °F 59% 29.67 in 15.0 mi WSW 20.7 mph 28.8 mph N/A   Mostly Cloudy
12:00 PM 28.4 °F 15.1 °F 17.6 °F 64% 29.67 in 15.0 mi WSW 20.7 mph 31.1 mph N/A   Mostly Cloudy
1:00 PM 30.2 °F 17.1 °F 17.6 °F 60% 29.69 in 15.0 mi West 21.9 mph 27.6 mph N/A   Mostly Cloudy
2:00 PM 31 °F - 17 °F 43% 29.70 in 15 mi West 17.3 mph - -   Mostly Cloudy
2:00 PM 30.2 °F 18.1 °F 17.6 °F 60% 29.70 in 15.0 mi West 18.4 mph 27.6 mph N/A   Mostly Cloudy
3:00 PM 30.2 °F 19.8 °F 17.6 °F 60% 29.73 in 15.0 mi West 13.8 mph 25.3 mph N/A   Scattered Clouds
4:00 PM 30.2 °F 20.2 °F 15.8 °F 55% 29.76 in 15.0 mi West 12.7 mph 23.0 mph N/A   Mostly Cloudy
5:00 PM 30.2 °F 21.3 °F 15.8 °F 55% 29.81 in 15.0 mi West 10.4 mph - N/A   Mostly Cloudy
6:00 PM 30.2 °F 22.6 °F 15.8 °F 55% 29.84 in 15.0 mi West 8.1 mph - N/A   Mostly Cloudy
7:00 PM 28.4 °F 19.1 °F 14.0 °F 55% 29.88 in 15.0 mi West 10.4 mph 19.6 mph N/A   Mostly Cloudy
8:00 PM 28 °F - 15 °F 44% 29.92 in 15 mi West 11.5 mph - -   Scattered Clouds
8:00 PM 28.4 °F 18.0 °F 14.0 °F 55% 29.91 in 15.0 mi West 12.7 mph 19.6 mph N/A   Scattered Clouds
9:00 PM 28.4 °F 19.7 °F 14.0 °F 55% 29.94 in 15.0 mi West 9.2 mph - N/A   Scattered Clouds
10:00 PM 26.6 °F 17.5 °F 14.0 °F 59% 29.96 in 15.0 mi West 9.2 mph - N/A   Partly Cloudy
11:00 PM 26.6 °F 18.2 °F 15.8 °F 64% 29.98 in 15.0 mi West 8.1 mph - N/A   Mostly Cloudy